www.pogodaiklimat.ru

Погода и климат >> Архив погоды >> Грузия >> Батуми


ПОГОДА в Батуми

  • Прогноз погоды в Батуми
  • Монитор погоды в Батуми

АРХИВ ПОГОДЫ в Батуми

Время (UTC), дата Ветер
(напр.,м/с)
 
Видим.   Явления Облачность Т
(С)
Тd
(С)
f
(%)
Тe
(С)
Тes
(С)
Комфортность P
(гПа)
Po
(гПа)
Тmin
(С)
Tmax
(С)
R
(мм)
R24
(мм)
S
(см)
18 14.07 З 2 н/о н/о +24.5 +17.5 65 +29 +29 душно 1006.7 1006.2 +26.8
21 14.07 Ю 2 н/о н/о +24.1 +17.8 68 +28 +28 душно 1005.9 1005.4
00 15.07 ЮВ 2 н/о н/о +22.2 +18.7 81 +28 +28 душно 1002.5 1002.0
03 15.07 ЮВ 2 н/о н/о +20.8 +18.4 86 +26 +26 душно 1001.0 1000.5
06 15.07 ЮЗ 4 н/о н/о +24.2 +18.9 72 +29 +29 душно 1001.2 1000.6 +20.8
09 15.07 З 6 н/о н/о +26.4 +18.5 62 +31 +31 душно 1002.5 1001.9
12 15.07 ЮЗ 5 н/о н/о +26.4 +17.5 58 +31 +31 душно 1004.0 1003.4
15 15.07 Ю 5 н/о н/о +26.0 +19.1 66 +31 +31 очень
душно
1005.4 1004.8 +26.8
18 15.07 В 2 н/о н/о +24.3 +21.0 82 +31 +31 очень
душно
1006.4 1005.9 +26.8
21 15.07 ЮВ 2 н/о н/о +22.7 +19.9 84 +29 +29 очень
душно
1007.5 1007.0
00 16.07 ЮВ 2 н/о н/о +21.1 +18.9 87 +25 +25 комфорт 1006.8 1006.3
03 16.07 штиль 0 н/о н/о +20.9 +17.8 82 +25 +25 комфорт 1007.3 1006.8
06 16.07 Ю 4 н/о н/о +24.9 +16.0 58 +28 +28 жарко 1008.5 1008.0 +20.8
09 16.07 З 6 н/о н/о +26.4 +20.8 71 +33 +33 очень
душно
1009.6 1009.0
12 16.07 З 4 н/о н/о +24.8 +19.7 73 +30 +30 душно 1010.4 1009.9
15 16.07 З 2 н/о н/о +24.6 +18.9 71 +30 +30 очень
душно
1010.7 1010.2 +27.6
18 16.07 Ю 2 н/о н/о +23.4 +19.2 77 +30 +30 очень
душно
1010.9 1010.4 +27.6 0.3
21 16.07 ЮВ 2 н/о н/о +21.1 +18.7 86 +25 +25 комфорт 1010.6 1010.1
00 17.07 ЮВ 1 н/о н/о +20.4 +18.8 91 +25 +25 комфорт 1009.1 1008.6
03 17.07 ЮВ 1 н/о н/о +19.9 +17.7 87 +24 +24 комфорт 1008.3 1007.8
06 17.07 СВ 2 н/о н/о +24.1 +18.2 70 +29 +29 душно 1007.8 1007.3 +19.8
09 17.07 З 4 н/о н/о +25.3 +18.7 67 +30 +30 душно 1007.2 1006.6
12 17.07 СЗ 3 н/о н/о +26.5 +18.5 61 +31 +31 душно 1006.5 1005.9
15 17.07 СЗ 4 н/о н/о +25.8 +19.5 68 +31 +31 очень
душно
1006.1 1005.6 +27.7
18 17.07 СВ 3 н/о н/о +24.5 +19.8 75 +30 +30 очень
душно
1006.1 1005.5 +27.7
21 17.07 ЮВ 1 н/о н/о +23.7 +19.7 78 +29 +29 душно 1005.9 1005.4
00 18.07 Ю 1 н/о н/о +23.8 +19.4 76 +29 +29 душно 1005.0 1004.5
03 18.07 ЮВ 2 н/о н/о +23.6 +19.6 78 +29 +29 душно 1005.3 1004.8
06 18.07 СЗ 3 н/о н/о +24.8 +18.9 70 +30 +30 душно 1005.7 1005.1 +23.1
09 18.07 СВ 3 н/о н/о +26.0 +20.1 70 +32 +32 очень
душно
1005.4 1004.9
12 18.07 З 5 н/о н/о +26.1 +19.9 69 +32 +32 очень
душно
1006.9 1006.4
15 18.07 З 2 н/о н/о +24.9 +20.1 75 +31 +31 очень
душно
1008.5 1008.0 +27.9
18 18.07 Ю 3 н/о н/о +24.5 +19.7 75 +30 +30 очень
душно
1010.7 1010.2 +27.9 0.7
21 18.07 ЮВ 2 н/о н/о +23.6 +19.7 79 +29 +29 душно 1011.6 1011.1
00 19.07 В 2 н/о н/о +23.3 +19.8 81 +30 +30 очень
душно
1011.4 1010.9
03 19.07 З 2 н/о н/о +23.0 +19.9 83 +30 +30 очень
душно
1012.0 1011.5
06 19.07 ЮВ 4 н/о н/о +22.4 +21.7 96 +30 +30 очень
душно
1012.8 1012.3 +21.3 8
09 19.07 Ю 4 н/о н/о +25.0 +19.3 71 +30 +30 душно 1013.3 1012.8
12 19.07 Ю 6 н/о н/о +24.4 +20.2 77 +30 +30 очень
душно
1014.3 1013.8
15 19.07 Ю 9 н/о н/о +24.7 +19.0 71 +30 +30 очень
душно
1014.7 1014.1 +25.4
18 19.07 Ю 8 н/о н/о +21.8 +21.3 97 +28 +28 душно 1016.2 1015.7 +25.3
21 19.07 ЮВ 4 н/о н/о +21.4 +21.4 100 +27 +27 душно 1016.8 1016.3 4
00 20.07 ЮВ 1 н/о н/о +21.8 +21.4 98 +28 +28 душно 1016.4 1015.9 4
03 20.07 Ю 1 н/о н/о +21.8 +20.9 95 +28 +28 душно 1016.3 1015.8
06 20.07 Ю 3 н/о н/о +23.6 +20.5 83 +29 +29 душно 1016.7 1016.2 +21.1 4
09 20.07 ЮЗ 4 н/о н/о +24.5 +19.7 75 +30 +30 очень
душно
1016.2 1015.7
12 20.07 ЮЗ 4 н/о н/о +24.4 +19.9 76 +30 +30 очень
душно
1016.0 1015.5
15 20.07 ЮВ 2 н/о н/о +24.1 +20.5 80 +30 +30 очень
душно
1015.5 1015.0 +25.0
18 20.07 Ю 2 н/о н/о +23.4 +20.3 83 +31 +31 очень
душно
1015.8 1015.3 +25.0
21 20.07 В 3 н/о н/о +22.8 +20.1 85 +29 +29 очень
душно
1015.8 1015.3 0.1
00 21.07 ЮВ 2 н/о н/о +22.9 +20.2 85 +30 +30 очень
душно
1015.0 1014.5 0.1
03 21.07 Ю 2 н/о н/о +22.7 +19.8 84 +29 +29 очень
душно
1014.5 1014.0
06 21.07 Ю 3 н/о н/о +22.4 +20.8 91 +29 +29 очень
душно
1014.5 1014.0 +22.2 0.7
09 21.07 ЮЗ 4 н/о н/о +23.6 +22.1 91 +30 +30 очень
душно
1014.1 1013.6 1
12 21.07 Ю 5 н/о н/о +22.7 +22.2 97 +31 +31 очень
душно
1014.6 1014.1 1
15 21.07 Ю 5 н/о н/о +23.1 +20.6 86 +30 +30 очень
душно
1014.4 1013.9 +24.4

 

Местоположение метеостанции Батуми (Грузия): широта 41.62 долгота 41.60 высота над уровнем моря 32 м.

В архиве по умолчанию представлена погода в Батуми за последнюю неделю. Архивные данные за месяц целиком и за предыдущие месяцы, начиная с января 2011 года, Вы можете получить, выбрав интересующий диапазон дат из раскрывающегося списка и нажав кнопку "Ввод!".


*Определитесь, кто Вы:
робот инопланетянин человек

Внимание! Время в таблицах - всемирное. Для получения местного времени необходимо прибавить поправку, которая равна 4 ч.

Смотрите также архив погоды в соседних городах и на ближайших метеорологических станциях:

Погода в Хопе (Турция) (28 км)
Погода в Артвине (Турция) (53 км)
Погода в Зугдиди (Грузия) (101 км)
Погода в Ардагане (Турция) (109 км)
Погода в Ризе (Турция) (112 км)
Погода в Кутаиси (Грузия) (112 км)
Погода в Сакаре (Грузия) (131 км)
Погода в Аспиндзе (Грузия) (137 км)
Погода в Амролаури (Грузия) (162 км)
Погода на Клухорском Перевале (Карачаево-Черкессия, Россия) (165 км)

Пояснения к столбцам:

Ветер - указаны скорость ветра в м/с - средняя за 10 мин, порывы в срок и между сроками (в фигурных скобках) и направление, откуда дует ветер: С - северный, СВ - северо-восточный, В - восточный, ЮВ - юго-восточный, Ю - южный, ЮЗ - юго-западный, З - западный, СЗ - северо-западный.
Видимость - горизонтальная дальность видимости в метрах или километрах. При видимости от 1 до 10 км при отсутствии осадков обычно наблюдается дымка, при ухудшении видимости до 1 км и менее - туман. В сухую погоду видимость может ухудшаться дымом, пылью или мглою.
Явления - указаны атмосферные явления, наблюдавшиеся в срок или в последний час перед сроком; фигурными скобками обозначены явления, наблюдавшиеся между сроками (за 1-3 часа до срока); квадратными скобками обозначены град или гололедные отложения с указанием их диаметра в мм.
Облачность - указаны через наклонную черту общая и нижняя облачность в баллах и высота нижней границы облаков в метрах; квадратными скобками обозначены формы облаков: Ci - перистые, Cs - перисто-слоистые, Cc - перисто-кучевые, Ac - высококучевые, As - высокослоистые, Sc - слоисто-кучевые, Ns - слоисто-дождевые, Cu - кучевые, Cb - кучево-дождевые. Подробнее классификацию облаков см. в Атласе облаков (PDF).
T - Температура воздуха - температура, измеренная на высоте 2 м над землей.
Td - Температура точки росы - температура, при понижении до которой содержащийся в воздухе водяной пар достигнет насыщения.
f - Относительная влажность воздуха - влажноcть воздуха, измеренная на высоте 2 м над землей.
Te - Эффективная температура - температура, которую ощущает одетый по сезону человек в тени. Характеристика душности погоды. При расчете учитывается влияние влажности воздуха и скорости ветра на теплоощущения человека.
Tes - Эффективная температура на солнце - температура, которую ощущает человек, с поправкой на солнечный нагрев. Характеристика знойности погоды. Зависит от высоты солнца над горизонтом, облачности и скорости ветра. Ночью, в пасмурную погоду, а также при ветре 12 м/с и более поправка равна нулю.
P - Атмосферное давление - приведенное к уровню моря атмосферное давление.
Po - Атмосферное давление - измеренное на уровне метеостанции атмосферное давление.
Tmin - Минимальная температура - минимум температуры воздуха на высоте 2 м над землей.
Tmax - Максимальная температура - максимум температуры воздуха на высоте 2 м над землей.
R - Количество осадков - Количество выпавших осадков за период времени, мм. При наведении курсора мыши на число - период времени, за который выпало указанное количество осадков.
R24 - Количество осадков - Количество выпавших осадков за 24 часа, мм.
S - Снежный покров - Высота снежного покрова, см. При наведении курсора мыши на число - состояние снежного покрова и степень покрытия местности в баллах.